Other Public Products
Issued by NWS Grand Forks, ND

Home | Current Version | Previous Version | Graphics & Text | Print | Product List | Glossary On
Versions: 1 2 3 4 5 6 7 8 9 10 11 12 13 14 15 16 17 18 19 20 21 22 23 24 25 26 27 28 29 30 31 32 33 34 35 36 37 38 39 40 41 42 43 44 45 46 47 48 49 50
660
FPUS83 KFGF 290110
OPUFGF
PRAIRIE TO PINES WEATHER ROUNDUP
NATIONAL WEATHER SERVICE EASTERN NORTH DAKOTA/GRAND FORKS ND
800 PM CDT TUE MAR 28 2017

 **SATELLITE DATA USED TO AUGMENT SKY COVER AT AUTOMATED STATIONS**
 *****  WEATHER ACROSS EASTERN NORTH DAKOTA  *****

CITY           SKY/WX    TMP DP  RH WIND       PRES   REMARKS
GRAND FORKS    MOCLDY    44  42  93 N7        30.20R
GRAND FORKS AF FAIR      42  40  96 N9        30.21R
GRAND CITY NWS NOT AVBL
BUXTON         NOT AVBL
DEVILS LAKE    FAIR      43  38  82 SE9       30.18R
FARGO          FAIR      53  40  61 N5        30.17R
WAHPETON ARPT  FAIR      52  37  58 N3        30.17R
$$

 *****  WEATHER ACROSS CENTRAL AND WESTERN NORTH DAKOTA  *****

CITY           SKY/WX    TMP DP  RH WIND       PRES   REMARKS
JAMESTOWN      FAIR      47  39  74 E7        30.16R
BISMARCK       FAIR      56  38  50 SE14      30.12R
MINOT          CLOUDY    50  43  77 E12       30.09R
MINOT AFB      CLOUDY    45  41  87 SE9       30.08R
GARRISON         N/A     48  38  68 SE12      30.08R
WILLISTON      LGT RAIN  45  42  89 S3        30.09F FOG
DICKINSON      CLOUDY    50  38  63 W12       30.06R THUNDER
HETTINGER      MOCLDY    51  41  68 S12       30.11R
$$

 *****  OTHER OBSERVATIONS NORTHEAST NORTH DAKOTA  *****

CITY           SKY/WX    TMP DP  RH WIND       PRES   REMARKS
WALHALLA       NOT AVBL
LANGDON        FAIR      37  36  93 E8        30.20R
CAVALIER       MOCLDY    39  36  87 N5        30.22R
GRAFTON        FAIR      41  41 100 N7        30.23R
CANDO          NOT AVBL
FORT TOTTEN      N/A     46  37  70 SE8       29.95S
ROLLA          CLOUDY    37  37 100 E10       30.15S
RUGBY          NOT AVBL
 ***** THE ABOVE OBSERVATIONS ARE NON NWS ARE NOT QUALITY
        CONTROLLED AND MAY MIS-REPORT RAIN FOR SNOW...
$$

 *****  OTHER OBSERVATIONS SOUTHEAST NORTH DAKOTA *****

CITY           SKY/WX    TMP DP  RH WIND       PRES   REMARKS
COOPERSTOWN    FAIR      45  43  93 E7        30.19R
VALLEY CITY    FAIR      48  43  81 E7        30.19R
OAKES          NOT AVBL
GWINNER        CLEAR     50  41  71 MISG      30.17R
SHEYENNE NWR     N/A     49  38  65 CALM      29.95S
BUFFALO        NOT AVBL
WYNDMERE       NOT AVBL
 ***** THE ABOVE OBSERVATIONS ARE NON NWS ARE NOT QUALITY
       CONTROLLED AND MAY MIS-REPORT RAIN FOR SNOW...
$$

  *****  WEATHER ACROSS NORTHERN MINNESOTA  *****

CITY           SKY/WX    TMP DP  RH WIND       PRES   REMARKS
FLAG ISLAND    FAIR      39  28  65 N5        30.22R
WARROAD        FAIR      37  28  70 NE5       30.23R
ROSEAU         FAIR      39  34  81 E6        30.22R
HALLOCK        FAIR      41  39  93 N3        30.21R
THF RVR FALLS  FAIR      48  37  65 NE3       30.21R
HALSTAD          N/A     47  45  90 N6          N/A
FOSSTON        FAIR      46  36  66 CALM      30.19R
BAUDETTE       FAIR      40  27  59 N6        30.21R
WASKISH        FAIR      46  32  57 N5        30.20R
CROOKSTON      FAIR      50  39  66 CALM      30.20R
$$
  *****  WEATHER ACROSS CENTRAL AND WEST MINNESOTA  *****

CITY           SKY/WX    TMP DP  RH WIND       PRES   REMARKS
BEMIDJI        FAIR      48  29  48 N5        30.18R
PARK RAPIDS    FAIR      54  27  35 E5        30.16R
WADENA         FAIR      55  34  44 NW3       30.15S
DETROIT LAKES  FAIR      50  36  57 CALM      30.17S
MOORHEAD       FAIR      52  43  71 N3        30.18R
FERGUS FALLS   FAIR      52  39  62 N3        30.19R
ELBOW LAKE     FAIR      52  40  63 CALM      30.16R
MORRIS MN      FAIR      55  37  50 CALM      30.15R
STAPLES        FAIR      54  30  40 NE5       30.15S
WHEATON        FAIR      52  39  62 N6        30.18R
$$
  *****  WEATHER ELSEWHERE ACROSS MINNESOTA  *****

CITY           SKY/WX    TMP DP  RH WIND       PRES   REMARKS
DULUTH         FAIR      41  30  65 SE7       30.18R
INTRNTL FALLS  FAIR      45  26  47 NE3       30.21R
ELY            FAIR      46  25  42 CALM      30.19R
CLOQUET        FAIR      52  27  37 E6        30.17R
BRAINERD       FAIR      50  30  46 CALM      30.16R
HIBBING        FAIR      43  27  53 CALM      30.18R
ALEXANDRIA     FAIR      56  32  40 S3        30.15S
SAINT CLOUD    FAIR      52  25  35 E3        30.15R
MINNEAPOLIS    FAIR      58  30  34 E7        30.16R
$$

  *****  WEATHER ACROSS SOUTH DAKOTA  *****

CITY           SKY/WX    TMP DP  RH WIND       PRES   REMARKS
SIOUX FALLS    CLOUDY    53  38  56 E9        30.13R
BROOKINGS      FAIR      54  37  52 E6        30.14R
WATERTOWN      FAIR      51  37  58 E3        30.15R
HURON          FAIR      54  39  57 E5        30.13R
SISSETON         N/A     53  40  61 CALM      30.15R
ABERDEEN       FAIR      52  32  46 E8        30.15R
MITCHELL       FAIR      54  37  52 SE6       30.13R
PIERRE         CLOUDY    50  44  80 W7        30.12R
MOBRIDGE       CLOUDY    53  38  56 E7        30.11R
RAPID CITY     LGT RAIN  44  42  93 SE5       30.10R
$$

  *****  SOME WEATHER IN NEARBY STATES *****

CITY           SKY/WX    TMP DP  RH WIND       PRES   REMARKS
GLASGOW MT     FAIR      55  29  36 S9        30.03S
GREAT FALLS MT FAIR      48  21  34 W16       30.04R
CHEYENNE WY    LGT RAIN  38  35  89 NE16G24   30.01R
SCOTTSBLUFF NE LGT RAIN  43  40  89 E8        30.05R
OMAHA NE       CLOUDY    50  41  71 NE7       30.09F
DES MOINES IA  CLOUDY    51  43  74 E5        30.14R
DAVENPORT IA   CLOUDY    47  40  76 E9        30.17R
CHICAGO IL     CLOUDY    42  36  79 NE5       30.18R
EAU CLAIRE WI  FAIR      53  28  38 E6        30.16R
LA CROSSE WI   FAIR      52  39  61 CALM      30.15R
$$

  *****  SOME NATIONAL WEATHER *****

CITY           SKY/WX    TMP DP  RH WIND       PRES   REMARKS
LA GUARDIA NY  LGT RAIN  43  39  86 NE13      29.93R FOG
RALEIGH NC     FAIR      66  55  67 NE5       29.91R
ATLANTA GA     FAIR      73  57  57 N7        29.97R
NEW ORLEANS LA FAIR      74  66  76 SE9       29.95S
OKLAHOMA CITY  CLOUDY    66  60  81 E17       29.66F
ALBUQUERQUE NM MOCLDY    49  36  61 NW10      29.82R
SALT LAKE CITY FAIR      53  31  42 NW18      30.15S
LOS ANGELES CA FAIR      66  53  63 SW8       29.94S
BOISE ID       FAIR      53  30  41 N12       30.25F
SEATTLE WA     CLOUDY    52  44  74 S17       30.18S
$$

*** WEATHER ACROSS MANITOBA...SASKATCHEWAN AND ONTARIO ***
                ***ONTARIO***

CITY           SKY/WX    TMP DP  RH WIND       PRES   REMARKS
GERALDTON      PTCLDY    28  18  64 N5        30.30R WCI  23
THUNDER BAY    PTCLDY    37  27  65 E10       30.26R
SIOUX LOOKOUT  PTCLDY    32  18  55 VRB2      30.27R
TORONTO        CLEAR     39  34  81 N10       30.12R
BIG TROUT LK   CLEAR     27  14  59 E3        30.39R
PICKLE LAKE    MOCLDY    28  16  59 NE6       30.32R WCI  22
DRYDEN         CLEAR     34  23  64 NE7       30.26R
KENORA         NOT AVBL
$$
                *** MANITOBA***

CITY           SKY/WX    TMP DP  RH WIND       PRES   REMARKS
BRANDON        MOCLDY    32  28  86 E14       30.19R WCI  22
DAUPHIN        LGT SNOW  34  28  80 SE14G20   30.22R WCI  24
ISLAND LAKE    NOT AVBL
PILOT MOUND      N/A     34  30  86 E10         N/A
THE PAS        CLOUDY    32  19  59 SE13      30.21F WCI  22
THOMPSON       MOCLDY    27  12  54 E3        30.31S
WINNIPEG       CLOUDY    37  28  70 NE7       30.24R
LYNN LAKE      CLEAR     27  16  63 SE7       30.19F WCI  19
CHURCHILL      MOCLDY    10   3  72 S9        30.44F WCI  -2
GILLAM         PTCLDY    19   9  63 E5        30.39S WCI  13
$$
                ***SASKATCHEWAN***

CITY           SKY/WX    TMP DP  RH WIND       PRES   REMARKS
ESTEVAN        CLOUDY    36  36 100 E9        30.10R FOG
KINDERSLEY     MOCLDY    48  32  53 S7        29.87F
LLOYDMINSTER   CLOUDY    39  39 100 E13       29.89S FOG
PRINCE ALBERT  LGT RAIN  36  32  87 E9        30.04F
REGINA         CLOUDY    37  36  93 SE17G23   30.05S
YORKTON        CLOUDY    34  32  93 SE13G18   30.13S WC



USA.gov is the U.S. government's official web portal to all federal, state and local government web resources and services.